EW9253 Weather Reports


time (UTC)temp
C
wind
direction
speed
KPH
gust
KPH
rain 1hr
cm
rain 24hr
cm
rain mn
cm
humidity
%
barometer
mb
20260906151518 21 205 1.6 12.9 0.00 0.00 0.00 75 1020.9
20260906150013 21 162 4.8 8.0 0.00 0.00 0.00 77 1020.9
20260906144511 20 130 3.2 12.9 0.00 0.00 0.00 78 1020.9
20260906143012 20 113 6.4 12.9 0.00 0.00 0.00 80 1020.7
20260906141514 19 94 8.0 16.1 0.00 0.00 0.00 82 1020.6
20260906140004 19 92 4.8 11.3 0.00 0.00 0.00 84 1020.8
20260906134503 18 120 3.2 9.7 0.00 0.00 0.00 86 1020.8
20260906133059 17 92 3.2 9.7 0.00 0.00 0.00 89 1020.9
20260906131555 17 113 0.0 0.0 0.00 0.00 0.00 96 1020.9
20260906130123 16 115 0.0 0.0 0.00 0.00 0.00 98 1020.8
20260906124557 16 115 0.0 0.0 0.00 0.00 0.00 98 1020.7
20260906123052 15 115 0.0 0.0 0.00 0.00 0.00 98 1020.5
20260906121603 14 115 0.0 0.0 0.00 0.00 0.00 98 1020.3
20260906114547 13 115 0.0 0.0 0.00 0.00 0.00 98 1020.2
20260906113051 13 115 0.0 0.0 0.00 0.00 0.00 98 1020.0
20260906111544 14 115 0.0 0.0 0.00 0.00 0.00 98 1020.1
20260906110040 14 115 0.0 0.0 0.00 0.00 0.00 98 1019.7
20260906104539 15 115 0.0 0.0 0.00 0.00 0.00 98 1019.5
20260906103049 15 115 0.0 0.0 0.00 0.00 0.00 98 1019.3
20260906101538 15 115 0.0 0.0 0.00 0.00 0.00 98 1019.4
20260906100037 15 115 0.0 0.0 0.00 0.00 0.00 98 1019.1
20260906094536 15 115 0.0 0.0 0.00 0.00 0.00 98 1019.0
20260906093039 15 115 0.0 0.0 0.00 0.00 0.00 97 1019.0
20260906091535 15 115 0.0 0.0 0.00 0.00 0.00 98 1019.1
20260906090034 15 115 0.0 0.0 0.00 0.00 0.00 97 1019.1
20260906084530 15 115 0.0 0.0 0.00 0.00 0.00 98 1019.1
20260906083029 16 115 0.0 0.0 0.00 0.00 0.00 98 1019.2
20260906081528 16 115 0.0 0.0 0.00 0.00 0.00 98 1019.1
20260906080029 16 115 0.0 0.0 0.00 0.00 0.00 97 1019.1
20260906074525 16 115 0.0 0.0 0.00 0.00 0.00 97 1019.1
20260906073022 16 115 0.0 0.0 0.00 0.00 0.00 97 1019.0
20260906071521 17 115 0.0 0.0 0.00 0.00 0.00 97 1019.1
20260906070019 17 115 0.0 0.0 0.00 0.00 0.00 97 1019.2
20260906064529 17 115 0.0 0.0 0.00 0.00 0.00 97 1019.3
20260906063017 17 115 0.0 0.0 0.00 0.00 0.00 97 1019.1
20260906061522 17 115 0.0 0.0 0.00 0.00 0.00 97 1019.2
20260906060013 17 115 0.0 0.0 0.00 0.00 0.00 97 1019.4
20260906054524 17 115 0.0 0.0 0.00 0.00 0.00 97 1019.2
20260906053010 17 115 0.0 0.0 0.00 0.00 0.00 98 1019.1
20260906051508 17 115 0.0 0.0 0.00 0.00 0.00 97 1018.9
20260906050009 17 115 0.0 0.0 0.00 0.00 0.00 97 1018.8
20260906044508 17 115 0.0 0.0 0.00 0.00 0.00 97 1018.9
20260906043018 17 115 0.0 0.0 0.00 0.00 0.00 97 1018.6
20260906041505 17 115 0.0 0.0 0.00 0.00 0.00 97 1018.5
20260906040003 17 115 0.0 0.0 0.00 0.00 0.00 97 1018.1
20260906034501 17 115 0.0 0.0 0.00 0.00 0.00 97 1017.9
20260906033101 17 115 0.0 0.0 0.00 0.00 0.00 96 1017.8
20260906031603 17 115 0.0 0.0 0.00 0.00 0.00 97 1017.7
20260906030100 17 115 0.0 0.0 0.00 0.00 0.00 97 1017.3
20260906024558 17 115 0.0 0.0 0.00 0.00 0.00 97 1017.3
20260906023059 17 115 0.0 0.0 0.00 0.00 0.00 97 1017.4
20260906021553 17 115 0.0 0.0 0.00 0.00 0.00 96 1017.1
20260906020050 17 115 0.0 0.0 0.00 0.00 0.00 95 1016.9
20260906014553 17 115 0.0 0.0 0.00 0.00 0.00 95 1016.8
20260906013048 18 115 0.0 0.0 0.00 0.00 0.00 95 1016.9
20260906011548 18 115 0.0 0.0 0.00 0.00 0.00 94 1016.7
20260906010047 19 115 0.0 0.0 0.00 0.00 0.00 92 1016.5
20260906004546 19 115 0.0 0.0 0.00 0.00 0.00 92 1016.3
20260906003046 20 115 0.0 0.0 0.00 0.00 0.00 89 1016.3
20260906001546 20 115 0.0 0.0 0.00 0.00 0.00 89 1016.4
20260906000045 21 115 0.0 3.2 0.00 0.00 0.00 87 1016.5
20260905234545 21 115 0.0 0.0 0.00 0.00 0.00 86 1016.3
20260905233045 21 115 0.0 1.6 0.00 0.00 0.00 85 1016.2
20260905231545 22 115 1.6 3.2 0.00 0.00 0.00 84 1016.2
20260905230043 22 115 1.6 3.2 0.00 0.00 0.00 84 1016.5
20260905224542 22 115 1.6 3.2 0.00 0.00 0.00 83 1016.4
20260905223041 22 115 0.0 4.8 0.00 0.00 0.00 83 1016.4
20260905221540 22 115 0.0 3.2 0.00 0.00 0.00 82 1016.5
20260905220040 24 116 3.2 6.4 0.00 0.00 0.00 75 1016.5
20260905214538 23 338 4.8 8.0 0.00 0.00 0.00 75 1016.7
20260905213036 24 19 0.0 6.4 0.00 0.00 0.00 77 1016.9
20260905211535 23 5 1.6 6.4 0.00 0.00 0.00 77 1017.0
20260905210032 23 5 3.2 8.0 0.00 0.00 0.00 79 1017.1
20260905204530 23 26 1.6 6.4 0.00 0.00 0.00 80 1017.1
20260905203030 23 109 0.0 9.7 0.00 0.00 0.00 83 1017.3
20260905201530 23 42 3.2 6.4 0.00 0.00 0.00 81 1017.2
20260905200034 23 55 4.8 9.7 0.00 0.00 0.00 80 1017.1
20260905194527 23 111 6.4 8.0 0.00 0.00 0.00 80 1017.3
20260905193028 22 44 1.6 4.8 0.00 0.00 0.00 82 1017.3
20260905191535 22 119 1.6 9.7 0.00 0.00 0.00 82 1017.3
20260905190033 22 103 1.6 9.7 0.00 0.00 0.00 82 1017.4
20260905184528 22 140 3.2 9.7 0.00 0.00 0.00 82 1017.3
20260905183020 22 87 1.6 9.7 0.00 0.00 0.00 83 1017.3
20260905181520 22 117 3.2 8.0 0.00 0.00 0.00 83 1017.5
20260905180021 22 63 3.2 4.8 0.00 0.00 0.00 84 1017.4
20260905174524 22 98 1.6 9.7 0.00 0.00 0.00 85 1017.4
20260905173014 21 115 3.2 8.0 0.00 0.00 0.00 86 1017.7
20260905171511 21 51 1.6 4.8 0.00 0.00 0.00 87 1017.9
20260905170011 21 61 1.6 4.8 0.00 0.00 0.00 89 1017.9
20260905164507 20 27 1.6 6.4 0.00 0.00 0.00 91 1018.1
20260905163005 20 136 1.6 8.0 0.00 0.00 0.00 91 1018.0
20260905161504 20 119 1.6 9.7 0.00 0.00 0.00 93 1018.0
20260905160007 19 115 4.8 9.7 0.00 0.00 0.00 94 1018.0
20260905154501 19 36 3.2 9.7 0.00 0.00 0.00 96 1018.0
20260905153111 18 142 1.6 4.8 0.00 0.00 0.00 96 1017.8